Radiosonde details



Informationen :

Serial : D26013341
Type : Graw DFM
Frequency : 403.210MHz
Launchsite : -
Nearest town : Jackpot, US (16.9km)

Altitude (Max) : 31239m at 2026-09-05 18:32:58
Speed (Max) : 154km/h at altitude 11481m

Average speed : 52km/h
Average ascent rate : 5m/s
Average descent rate : -10m/s
Ascent rate (Max) : 9.6m/s
Descent rate (Max): -29m/s

First frame :
KE7DJD at 2026-09-05 17:55:32 at altitude 18885m (OG: 16674m)
Last frame :
KE7DJD at 2026-09-05 19:17:36 at altitude 6010m (OG: 3906m)

Flighttime : 1h22m4s
Ascent time : 37m26s
Descent time : 44m38s
Uptime : -
Killtimer : -

Distance (Straight line distance): 53km

Distance (Route):


Frames : 232


Measurement :

Temperature : -5.6°C
Humidity : 0%
Pressure : 0hPa


Vertical profile (SkewT) :


Elevation profile :



Receiving stations :


Receiver Frames First received Last received
KE7DJD 232 2026-09-05 17:55:32 2026-09-05 19:17:36

Share per receiver :



All frames :


Receiver Date Latitude Longitude Direction Speed Altitude Climb Temperature Humidity Pressure Voltage Killtimer Uptime BKT XDATA
KE7DJD2026-09-05 19:17:3641.99780-114.8780729°80km/h6010m-6.0m/s-5.6°C0%0hPa0V00:00:0000:00:0000:00:00
KE7DJD2026-09-05 19:16:4741.98897-114.8843630°82km/h6308m-5.8m/s-8.1°C0%0hPa0V00:00:0000:00:0000:00:00
KE7DJD2026-09-05 19:16:2641.98505-114.8871828°84km/h6434m-6.0m/s-9.0°C0%0hPa0V00:00:0000:00:0000:00:00
KE7DJD2026-09-05 19:16:0541.98082-114.8902331°88km/h6566m-5.9m/s-9.7°C0%0hPa0V00:00:0000:00:0000:00:00
KE7DJD2026-09-05 19:15:4441.97677-114.8934029°95km/h6692m-5.9m/s-10.5°C0%0hPa0V00:00:0000:00:0000:00:00
KE7DJD2026-09-05 19:15:2241.97199-114.8970534°97km/h6824m-6.0m/s-11.2°C0%0hPa0V00:00:0000:00:0000:00:00
KE7DJD2026-09-05 19:15:0141.96784-114.9004732°97km/h6940m-5.8m/s-12.2°C0%0hPa0V00:00:0000:00:0000:00:00
KE7DJD2026-09-05 19:14:4141.96360-114.9038833°95km/h7061m-5.6m/s-12.8°C0%0hPa0V00:00:0000:00:0000:00:00
KE7DJD2026-09-05 19:14:1941.95932-114.9074734°95km/h7181m-5.7m/s-13.7°C0%0hPa0V00:00:0000:00:0000:00:00
KE7DJD2026-09-05 19:13:5841.95505-114.9112536°97km/h7301m-5.3m/s-14.0°C0%0hPa0V00:00:0000:00:0000:00:00
KE7DJD2026-09-05 19:13:3841.95071-114.9152935°102km/h7417m-5.6m/s-14.5°C0%0hPa0V00:00:0000:00:0000:00:00
KE7DJD2026-09-05 19:13:1741.94617-114.9196537°108km/h7532m-5.4m/s-14.9°C0%0hPa0V00:00:0000:00:0000:00:00
KE7DJD2026-09-05 19:12:5641.94176-114.9240038°108km/h7639m-5.5m/s-15.8°C0%0hPa0V00:00:0000:00:0000:00:00
KE7DJD2026-09-05 19:12:3641.93686-114.9286735°113km/h7749m-5.4m/s-16.5°C0%0hPa0V00:00:0000:00:0000:00:00
KE7DJD2026-09-05 19:12:1541.93187-114.9333335°115km/h7859m-5.2m/s-17.3°C0%0hPa0V00:00:0000:00:0000:00:00
KE7DJD2026-09-05 19:11:3441.92227-114.9423536°113km/h8074m-5.3m/s-19.1°C0%0hPa0V00:00:0000:00:0000:00:00
KE7DJD2026-09-05 19:11:1341.91754-114.9469138°117km/h8180m-5.1m/s-19.9°C0%0hPa0V00:00:0000:00:0000:00:00
KE7DJD2026-09-05 19:10:5241.91249-114.9519038°119km/h8289m-5.3m/s-20.8°C0%0hPa0V00:00:0000:00:0000:00:00
KE7DJD2026-09-05 19:10:3241.90759-114.9566135°120km/h8394m-5.3m/s-21.7°C0%0hPa0V00:00:0000:00:0000:00:00
KE7DJD2026-09-05 19:10:1241.90239-114.9613334°120km/h8506m-5.3m/s-22.6°C0%0hPa0V00:00:0000:00:0000:00:00
KE7DJD2026-09-05 19:09:5141.89736-114.9656434°117km/h8612m-5.5m/s-23.6°C0%0hPa0V00:00:0000:00:0000:00:00
KE7DJD2026-09-05 19:09:3141.89212-114.9702335°117km/h8726m-5.6m/s-24.5°C0%0hPa0V00:00:0000:00:0000:00:00
KE7DJD2026-09-05 19:09:1041.88714-114.9745833°117km/h8838m-5.7m/s-25.4°C0%0hPa0V00:00:0000:00:0000:00:00
KE7DJD2026-09-05 19:08:5041.88189-114.9791334°117km/h8957m-5.9m/s-26.5°C0%0hPa0V00:00:0000:00:0000:00:00
KE7DJD2026-09-05 19:08:2941.87687-114.9836434°117km/h9080m-6.0m/s-27.5°C0%0hPa0V00:00:0000:00:0000:00:00
KE7DJD2026-09-05 19:08:0941.87154-114.9881035°120km/h9201m-6.0m/s-28.5°C0%0hPa0V00:00:0000:00:0000:00:00
KE7DJD2026-09-05 19:07:4741.86604-114.9932036°130km/h9326m-6.1m/s-29.4°C0%0hPa0V00:00:0000:00:0000:00:00
KE7DJD2026-09-05 19:07:2741.86066-114.9980836°131km/h9450m-6.4m/s-30.5°C0%0hPa0V00:00:0000:00:0000:00:00
KE7DJD2026-09-05 19:07:0741.85476-115.0034535°135km/h9584m-6.5m/s-31.5°C0%0hPa0V00:00:0000:00:0000:00:00
KE7DJD2026-09-05 19:06:4641.84890-115.0090337°133km/h9723m-6.8m/s-32.7°C0%0hPa0V00:00:0000:00:0000:00:00
KE7DJD2026-09-05 19:06:2541.84332-115.0143537°133km/h9858m-6.9m/s-33.9°C0%0hPa0V00:00:0000:00:0000:00:00
KE7DJD2026-09-05 19:06:0541.83775-115.0196437°133km/h9995m-7.2m/s-34.8°C0%0hPa0V00:00:0000:00:0000:00:00
KE7DJD2026-09-05 19:05:4541.83190-115.0254637°139km/h10143m-7.2m/s-35.9°C0%0hPa0V00:00:0000:00:0000:00:00
KE7DJD2026-09-05 19:05:2441.82626-115.0309637°141km/h10288m-7.3m/s-36.9°C0%0hPa0V00:00:0000:00:0000:00:00
KE7DJD2026-09-05 19:05:0441.82018-115.0369038°142km/h10440m-7.5m/s-37.9°C0%0hPa0V00:00:0000:00:0000:00:00
KE7DJD2026-09-05 19:04:4341.81427-115.0424234°146km/h10586m-7.4m/s-38.8°C0%0hPa0V00:00:0000:00:0000:00:00
KE7DJD2026-09-05 19:04:2341.80778-115.0479933°144km/h10741m-7.4m/s-40.0°C0%0hPa0V00:00:0000:00:0000:00:00
KE7DJD2026-09-05 19:04:0241.80145-115.0530532°148km/h10888m-7.4m/s-41.2°C0%0hPa0V00:00:0000:00:0000:00:00
KE7DJD2026-09-05 19:03:4241.79477-115.0585135°148km/h11043m-7.2m/s-42.2°C0%0hPa0V00:00:0000:00:0000:00:00
KE7DJD2026-09-05 19:03:2141.78851-115.0637833°148km/h11187m-7.2m/s-43.2°C0%0hPa0V00:00:0000:00:0000:00:00
KE7DJD2026-09-05 19:03:0141.78189-115.0695334°148km/h11338m-7.1m/s-43.5°C0%0hPa0V00:00:0000:00:0000:00:00
KE7DJD2026-09-05 19:02:4041.77561-115.0753436°151km/h11481m-7.3m/s-44.5°C0%0hPa0V00:00:0000:00:0000:00:00
KE7DJD2026-09-05 19:02:2041.76925-115.0817939°148km/h11631m-7.1m/s-45.0°C0%0hPa0V00:00:0000:00:0000:00:00
KE7DJD2026-09-05 19:01:5841.76315-115.0883241°146km/h11781m-7.2m/s-44.8°C0%0hPa0V00:00:0000:00:0000:00:00
KE7DJD2026-09-05 19:01:3841.75740-115.0946941°146km/h11924m-7.2m/s-44.9°C0%0hPa0V00:00:0000:00:0000:00:00
KE7DJD2026-09-05 19:01:1841.75167-115.1013241°137km/h12076m-7.4m/s-45.1°C0%0hPa0V00:00:0000:00:0000:00:00
KE7DJD2026-09-05 19:00:5741.74653-115.1069338°128km/h12226m-7.6m/s-45.1°C0%0hPa0V00:00:0000:00:0000:00:00
KE7DJD2026-09-05 19:00:3641.74115-115.1122137°128km/h12386m-7.7m/s-45.5°C0%0hPa0V00:00:0000:00:0000:00:00
KE7DJD2026-09-05 19:00:1641.73575-115.1171637°131km/h12544m-7.8m/s-45.8°C0%0hPa0V00:00:0000:00:0000:00:00
KE7DJD2026-09-05 18:59:5641.73055-115.1226743°128km/h12700m-7.6m/s-46.0°C0%0hPa0V00:00:0000:00:0000:00:00
KE7DJD2026-09-05 18:59:3541.72575-115.1293248°119km/h12858m-7.7m/s-45.9°C0%0hPa0V00:00:0000:00:0000:00:00
KE7DJD2026-09-05 18:59:1541.72185-115.1345442°106km/h13010m-7.4m/s-46.0°C0%0hPa0V00:00:0000:00:0000:00:00
KE7DJD2026-09-05 18:58:5441.71773-115.1391541°108km/h13160m-7.6m/s-46.3°C0%0hPa0V00:00:0000:00:0000:00:00
KE7DJD2026-09-05 18:58:3441.71346-115.1442847°104km/h13318m-7.5m/s-46.8°C0%0hPa0V00:00:0000:00:0000:00:00
KE7DJD2026-09-05 18:58:1341.70973-115.1493844°108km/h13468m-7.4m/s-46.8°C0%0hPa0V00:00:0000:00:0000:00:00
KE7DJD2026-09-05 18:57:5341.70539-115.1541238°102km/h13626m-7.5m/s-46.7°C0%0hPa0V00:00:0000:00:0000:00:00
KE7DJD2026-09-05 18:57:3241.70132-115.1586543°106km/h13776m-7.7m/s-47.2°C0%0hPa0V00:00:0000:00:0000:00:00
KE7DJD2026-09-05 18:57:1241.69738-115.1637144°99km/h13931m-7.2m/s-47.4°C0%0hPa0V00:00:0000:00:0000:00:00
KE7DJD2026-09-05 18:56:5141.69354-115.1680141°93km/h14087m-7.3m/s-47.9°C0%0hPa0V00:00:0000:00:0000:00:00
KE7DJD2026-09-05 18:56:3041.68985-115.1720238°91km/h14235m-7.3m/s-48.2°C0%0hPa0V00:00:0000:00:0000:00:00
KE7DJD2026-09-05 18:56:1041.68619-115.1757037°82km/h14390m-7.5m/s-48.6°C0%0hPa0V00:00:0000:00:0000:00:00
KE7DJD2026-09-05 18:55:4941.68286-115.1789939°80km/h14538m-7.5m/s-49.2°C0%0hPa0V00:00:0000:00:0000:00:00
KE7DJD2026-09-05 18:55:2941.67927-115.1825238°82km/h14695m-7.1m/s-49.5°C0%0hPa0V00:00:0000:00:0000:00:00
KE7DJD2026-09-05 18:55:0841.67582-115.1856832°84km/h14842m-7.5m/s-49.7°C0%0hPa0V00:00:0000:00:0000:00:00
KE7DJD2026-09-05 18:54:4841.67195-115.1888033°86km/h15000m-7.6m/s-50.0°C0%0hPa0V00:00:0000:00:0000:00:00
KE7DJD2026-09-05 18:54:2741.66810-115.1919735°89km/h15154m-7.9m/s-49.3°C0%0hPa0V00:00:0000:00:0000:00:00
KE7DJD2026-09-05 18:54:0741.66485-115.1956747°77km/h15314m-7.6m/s-49.3°C0%0hPa0V00:00:0000:00:0000:00:00
KE7DJD2026-09-05 18:53:4641.66227-115.1991647°69km/h15466m-7.4m/s-49.9°C0%0hPa0V00:00:0000:00:0000:00:00
KE7DJD2026-09-05 18:53:2641.65976-115.2027348°60km/h15623m-7.2m/s-50.5°C0%0hPa0V00:00:0000:00:0000:00:00
KE7DJD2026-09-05 18:53:0541.65751-115.2055340°64km/h15772m-7.3m/s-50.8°C0%0hPa0V00:00:0000:00:0000:00:00
KE7DJD2026-09-05 18:52:4541.65453-115.2085737°73km/h15925m-7.4m/s-51.6°C0%0hPa0V00:00:0000:00:0000:00:00
KE7DJD2026-09-05 18:52:2441.65151-115.2118943°77km/h16073m-7.5m/s-51.9°C0%0hPa0V00:00:0000:00:0000:00:00
KE7DJD2026-09-05 18:52:0441.64842-115.2156743°78km/h16231m-7.5m/s-52.7°C0%0hPa0V00:00:0000:00:0000:00:00
KE7DJD2026-09-05 18:51:4241.64561-115.2196751°66km/h16392m-7.6m/s-51.9°C0%0hPa0V00:00:0000:00:0000:00:00
KE7DJD2026-09-05 18:51:2241.64361-115.2226049°58km/h16547m-7.6m/s-51.5°C0%0hPa0V00:00:0000:00:0000:00:00
KE7DJD2026-09-05 18:51:0241.64160-115.2252638°47km/h16713m-8.0m/s-51.5°C0%0hPa0V00:00:0000:00:0000:00:00
KE7DJD2026-09-05 18:50:4141.63955-115.2265312°47km/h16877m-7.9m/s-51.9°C0%0hPa0V00:00:0000:00:0000:00:00
KE7DJD2026-09-05 18:50:2141.63676-115.22672358°55km/h17041m-7.8m/s-52.4°C0%0hPa0V00:00:0000:00:0000:00:00
KE7DJD2026-09-05 18:50:0041.63389-115.22645358°60km/h17202m-8.5m/s-53.4°C0%0hPa0V00:00:0000:00:0000:00:00
KE7DJD2026-09-05 18:49:4041.63063-115.2265162km/h17377m-8.5m/s-53.8°C0%0hPa0V00:00:0000:00:0000:00:00
KE7DJD2026-09-05 18:49:1941.62747-115.2269013°62km/h17555m-8.8m/s-49.9°C0%0hPa0V00:00:0000:00:0000:00:00
KE7DJD2026-09-05 18:48:3841.62345-115.2296217°24km/h17927m-9.0m/s-47.4°C0%0hPa0V00:00:0000:00:0000:00:00
KE7DJD2026-09-05 18:48:1841.62218-115.2298127km/h18118m-9.5m/s-48.8°C0%0hPa0V00:00:0000:00:0000:00:00
KE7DJD2026-09-05 18:47:5741.62084-115.2300627km/h18294m-8.4m/s-50.4°C0%0hPa0V00:00:0000:00:0000:00:00
KE7DJD2026-09-05 18:47:3741.61942-115.2302129km/h18495m-9.5m/s-52.4°C0%0hPa0V00:00:0000:00:0000:00:00
KE7DJD2026-09-05 18:47:1641.61803-115.2303211°29km/h18691m-9.4m/s-52.8°C0%0hPa0V00:00:0000:00:0000:00:00
KE7DJD2026-09-05 18:46:5541.61669-115.2307410°24km/h18878m-9.5m/s-52.7°C0%0hPa0V00:00:0000:00:0000:00:00
KE7DJD2026-09-05 18:46:3541.61568-115.2311827°13km/h19078m-9.4m/s-52.2°C0%0hPa0V00:00:0000:00:0000:00:00
KE7DJD2026-09-05 18:46:1341.61494-115.2318760°15km/h19281m-10.0m/s-52.4°C0%0hPa0V00:00:0000:00:0000:00:00
KE7DJD2026-09-05 18:45:5241.61483-115.232000km/h19492m-9.9m/s-50.0°C0%0hPa0V00:00:0000:00:0000:00:00
KE7DJD2026-09-05 18:45:3241.61432-115.23159347°20km/h19703m-9.6m/s-49.7°C0%0hPa0V00:00:0000:00:0000:00:00
KE7DJD2026-09-05 18:45:1041.61307-115.23064322°29km/h19918m-10.2m/s-49.2°C0%0hPa0V00:00:0000:00:0000:00:00
KE7DJD2026-09-05 18:44:5041.61179-115.23012357°22km/h20125m-10.3m/s-50.2°C0%0hPa0V00:00:0000:00:0000:00:00
KE7DJD2026-09-05 18:44:3041.61078-115.23008352°18km/h20343m-10.4m/s-49.5°C0%0hPa0V00:00:0000:00:0000:00:00
KE7DJD2026-09-05 18:44:0941.61007-115.22919286°24km/h20559m-11.0m/s-49.7°C0%0hPa0V00:00:0000:00:0000:00:00
KE7DJD2026-09-05 18:43:4941.60938-115.22736320°33km/h20789m-10.4m/s-49.5°C0%0hPa0V00:00:0000:00:0000:00:00
KE7DJD2026-09-05 18:43:0841.60775-115.22614281°5km/h21253m-11.1m/s-48.5°C0%0hPa0V00:00:0000:00:0000:00:00
KE7DJD2026-09-05 18:42:4641.60776-115.22549289°18km/h21501m-11.3m/s-48.8°C0%0hPa0V00:00:0000:00:0000:00:00
KE7DJD2026-09-05 18:42:2541.60726-115.22418320°20km/h21759m-12.1m/s-49.2°C0%0hPa0V00:00:0000:00:0000:00:00
KE7DJD2026-09-05 18:42:0541.60661-115.22326274°11km/h22022m-12.3m/s-49.0°C0%0hPa0V00:00:0000:00:0000:00:00
KE7DJD2026-09-05 18:41:3941.60651-115.22250289°16km/h22340m-13.1m/s-49.1°C0%0hPa0V00:00:0000:00:0000:00:00
KE7DJD2026-09-05 18:41:1941.60651-115.22153239°11km/h22599m-13.6m/s-49.4°C0%0hPa0V00:00:0000:00:0000:00:00
KE7DJD2026-09-05 18:40:5841.60674-115.22011296°20km/h22876m-13.4m/s-49.3°C0%0hPa0V00:00:0000:00:0000:00:00
KE7DJD2026-09-05 18:40:3841.60646-115.21879280°29km/h23141m-13.2m/s-46.8°C0%0hPa0V00:00:0000:00:0000:00:00
KE7DJD2026-09-05 18:40:1841.60621-115.21676302°20km/h23424m-13.6m/s-45.5°C0%0hPa0V00:00:0000:00:0000:00:00
KE7DJD2026-09-05 18:39:5741.60566-115.21612284°9km/h23702m-13.8m/s-45.4°C0%0hPa0V00:00:0000:00:0000:00:00
KE7DJD2026-09-05 18:39:3741.60655-115.21529222°37km/h24001m-14.5m/s-45.4°C0%0hPa0V00:00:0000:00:0000:00:00
KE7DJD2026-09-05 18:38:5541.60786-115.21162281°35km/h24612m-14.9m/s-45.3°C0%0hPa0V00:00:0000:00:0000:00:00
KE7DJD2026-09-05 18:38:3541.60742-115.20946278°22km/h24915m-15.3m/s-46.2°C0%0hPa0V00:00:0000:00:0000:00:00
KE7DJD2026-09-05 18:38:1341.60738-115.20851268°24km/h25260m-16.0m/s-46.3°C0%0hPa0V00:00:0000:00:0000:00:00
KE7DJD2026-09-05 18:37:5241.60706-115.20742297°27km/h25579m-16.5m/s-45.4°C0%0hPa0V00:00:0000:00:0000:00:00
KE7DJD2026-09-05 18:37:3241.60637-115.20617344°18km/h25931m-17.2m/s-44.6°C0%0hPa0V00:00:0000:00:0000:00:00
KE7DJD2026-09-05 18:37:1141.60538-115.20551347°18km/h26298m-17.9m/s-42.2°C0%0hPa0V00:00:0000:00:0000:00:00
KE7DJD2026-09-05 18:36:4941.60488-115.20507299°16km/h26672m-17.5m/s-41.3°C0%0hPa0V00:00:0000:00:0000:00:00
KE7DJD2026-09-05 18:36:2941.60500-115.20475279°13km/h27052m-18.8m/s-42.1°C0%0hPa0V00:00:0000:00:0000:00:00
KE7DJD2026-09-05 18:36:0841.60536-115.20416226°13km/h27439m-22.7m/s-41.1°C0%0hPa0V00:00:0000:00:0000:00:00
KE7DJD2026-09-05 18:35:4741.60509-115.20309294°27km/h27873m-21.6m/s-40.9°C0%0hPa0V00:00:0000:00:0000:00:00
KE7DJD2026-09-05 18:35:2741.60425-115.20171319°24km/h28315m-21.4m/s-41.3°C0%0hPa0V00:00:0000:00:0000:00:00
KE7DJD2026-09-05 18:35:0641.60306-115.20118348°29km/h28781m-22.7m/s-39.4°C0%0hPa0V00:00:0000:00:0000:00:00
KE7DJD2026-09-05 18:34:4641.60189-115.2014720°24km/h29226m-24.3m/s-39.3°C0%0hPa0V00:00:0000:00:0000:00:00
KE7DJD2026-09-05 18:34:2341.60170-115.20145264°5km/h29741m-25.7m/s-38.3°C0%0hPa0V00:00:0000:00:0000:00:00
KE7DJD2026-09-05 18:34:0341.60143-115.20096208°20km/h30166m-23.7m/s-38.7°C0%0hPa0V00:00:0000:00:0000:00:00
KE7DJD2026-09-05 18:33:4141.60077-115.20054345°24km/h30571m-29.0m/s-38.4°C0%0hPa0V00:00:0000:00:0000:00:00
KE7DJD2026-09-05 18:33:2041.60047-115.20123322°27km/h31150m-18.4m/s-36.3°C0%0hPa0V00:00:0000:00:0000:00:00
KE7DJD2026-09-05 18:32:5841.60057-115.20060175°26km/h31239m2.0m/s-36.3°C0%0hPa0V00:00:0000:00:0000:00:00
KE7DJD2026-09-05 18:32:3741.60052-115.2006837°16km/h31093m5.5m/s-36.5°C0%0hPa0V00:00:0000:00:0000:00:00
KE7DJD2026-09-05 18:32:1641.60034-115.2009928°9km/h30964m6.8m/s-37.0°C0%0hPa0V00:00:0000:00:0000:00:00
KE7DJD2026-09-05 18:31:5641.59948-115.2015868°18km/h30833m9.6m/s-37.2°C0%0hPa0V00:00:0000:00:0000:00:00
KE7DJD2026-09-05 18:31:3541.59901-115.20192338°9km/h30710m2.6m/s-37.8°C0%0hPa0V00:00:0000:00:0000:00:00
KE7DJD2026-09-05 18:31:1541.59798-115.20205337°20km/h30577m7.2m/s-38.0°C0%0hPa0V00:00:0000:00:0000:00:00
KE7DJD2026-09-05 18:30:5441.59772-115.20146222°33km/h30449m5.8m/s-38.3°C0%0hPa0V00:00:0000:00:0000:00:00
KE7DJD2026-09-05 18:30:3441.59760-115.2008025°27km/h30315m0.6m/s-38.3°C0%0hPa0V00:00:0000:00:0000:00:00
KE7DJD2026-09-05 18:30:1241.59731-115.20035252°27km/h30183m-0.6m/s-38.2°C0%0hPa0V00:00:0000:00:0000:00:00
KE7DJD2026-09-05 18:29:5141.59720-115.2005853°40km/h30051m1.3m/s-38.3°C0%0hPa0V00:00:0000:00:0000:00:00
KE7DJD2026-09-05 18:29:3041.59718-115.20056202°24km/h29927m1.8m/s-38.5°C0%0hPa0V00:00:0000:00:0000:00:00
KE7DJD2026-09-05 18:29:1041.59693-115.20038344°29km/h29803m4.3m/s-38.2°C0%0hPa0V00:00:0000:00:0000:00:00
KE7DJD2026-09-05 18:28:4941.59686-115.19959231°26km/h29682m2.1m/s-38.9°C0%0hPa0V00:00:0000:00:0000:00:00
KE7DJD2026-09-05 18:28:2941.59694-115.1993714°13km/h29556m3.8m/s-38.6°C0%0hPa0V00:00:0000:00:0000:00:00
KE7DJD2026-09-05 18:28:0741.59721-115.19940141°20km/h29434m3.6m/s-38.4°C0%0hPa0V00:00:0000:00:0000:00:00
KE7DJD2026-09-05 18:27:4641.59659-115.2003783°13km/h29300m7.3m/s-39.6°C0%0hPa0V00:00:0000:00:0000:00:00
KE7DJD2026-09-05 18:27:2541.59545-115.20099354°60km/h29177m3.5m/s-39.7°C0%0hPa0V00:00:0000:00:0000:00:00
KE7DJD2026-09-05 18:27:0541.59436-115.20124125°22km/h29056m5.0m/s-39.1°C0%0hPa0V00:00:0000:00:0000:00:00
KE7DJD2026-09-05 18:26:4441.59325-115.2011962km/h28939m3.5m/s-39.7°C0%0hPa0V00:00:0000:00:0000:00:00
KE7DJD2026-09-05 18:26:2441.59196-115.20090258°35km/h28818m3.0m/s-40.5°C0%0hPa0V00:00:0000:00:0000:00:00
KE7DJD2026-09-05 18:26:0241.59062-115.2007524°38km/h28700m3.4m/s-41.1°C0%0hPa0V00:00:0000:00:0000:00:00
KE7DJD2026-09-05 18:25:4241.58943-115.20023326°11km/h28575m3.9m/s-41.4°C0%0hPa0V00:00:0000:00:0000:00:00
KE7DJD2026-09-05 18:25:2241.58801-115.19932275°38km/h28450m8.7m/s-41.4°C0%0hPa0V00:00:0000:00:0000:00:00
KE7DJD2026-09-05 18:25:0141.58696-115.19810360°47km/h28330m6.0m/s-41.4°C0%0hPa0V00:00:0000:00:0000:00:00
KE7DJD2026-09-05 18:24:4141.58609-115.19707277°24km/h28205m2.8m/s-41.8°C0%0hPa0V00:00:0000:00:0000:00:00
KE7DJD2026-09-05 18:24:1941.58499-115.19610295°35km/h28080m7.5m/s-41.3°C0%0hPa0V00:00:0000:00:0000:00:00
KE7DJD2026-09-05 18:23:5941.58446-115.1946724km/h27956m1.3m/s-40.9°C0%0hPa0V00:00:0000:00:0000:00:00
KE7DJD2026-09-05 18:23:3841.58399-115.19329280°15km/h27838m4.7m/s-40.7°C0%0hPa0V00:00:0000:00:0000:00:00
KE7DJD2026-09-05 18:23:1641.58373-115.19227272°33km/h27710m6.6m/s-40.9°C0%0hPa0V00:00:0000:00:0000:00:00
KE7DJD2026-09-05 18:22:5541.58360-115.19160298°20km/h27587m5.0m/s-41.1°C0%0hPa0V00:00:0000:00:0000:00:00
KE7DJD2026-09-05 18:22:3441.58349-115.19083263°15km/h27458m5.3m/s-40.7°C0%0hPa0V00:00:0000:00:0000:00:00
KE7DJD2026-09-05 18:22:1441.58401-115.18968306°22km/h27341m4.8m/s-41.2°C0%0hPa0V00:00:0000:00:0000:00:00
KE7DJD2026-09-05 18:21:5341.58479-115.18885210°7km/h27232m5.7m/s-41.3°C0%0hPa0V00:00:0000:00:0000:00:00
KE7DJD2026-09-05 18:21:3241.58508-115.1888195°5km/h27110m3.8m/s-41.6°C0%0hPa0V00:00:0000:00:0000:00:00
KE7DJD2026-09-05 18:21:1241.58475-115.18842261°27km/h26996m6.2m/s-41.8°C0%0hPa0V00:00:0000:00:0000:00:00
KE7DJD2026-09-05 18:20:5141.58479-115.18817150°13km/h26879m5.9m/s-42.0°C0%0hPa0V00:00:0000:00:0000:00:00
KE7DJD2026-09-05 18:20:3041.58517-115.1880265°7km/h26761m7.4m/s-41.6°C0%0hPa0V00:00:0000:00:0000:00:00
KE7DJD2026-09-05 18:20:0941.58489-115.18745352°13km/h26645m6.0m/s-42.0°C0%0hPa0V00:00:0000:00:0000:00:00
KE7DJD2026-09-05 18:19:4841.58437-115.18661294°26km/h26526m6.7m/s-42.4°C0%0hPa0V00:00:0000:00:0000:00:00
KE7DJD2026-09-05 18:19:2641.58390-115.1860721°24km/h26397m6.2m/s-43.1°C0%0hPa0V00:00:0000:00:0000:00:00
KE7DJD2026-09-05 18:19:0641.58315-115.18558352°9km/h26279m8.1m/s-43.8°C0%0hPa0V00:00:0000:00:0000:00:00
KE7DJD2026-09-05 18:18:4641.58204-115.18437293°40km/h26162m5.3m/s-44.3°C0%0hPa0V00:00:0000:00:0000:00:00
KE7DJD2026-09-05 18:18:2641.58142-115.18331269°22km/h26045m6.2m/s-44.8°C0%0hPa0V00:00:0000:00:0000:00:00
KE7DJD2026-09-05 18:18:0541.58089-115.18271327°16km/h25929m6.5m/s-44.8°C0%0hPa0V00:00:0000:00:0000:00:00
KE7DJD2026-09-05 18:17:4541.58025-115.18159288°29km/h25812m6.4m/s-44.9°C0%0hPa0V00:00:0000:00:0000:00:00
KE7DJD2026-09-05 18:17:2441.57991-115.17999251°26km/h25696m6.4m/s-44.9°C0%0hPa0V00:00:0000:00:0000:00:00
KE7DJD2026-09-05 18:17:0241.57984-115.17818293°24km/h25582m5.4m/s-44.8°C0%0hPa0V00:00:0000:00:0000:00:00
KE7DJD2026-09-05 18:16:2941.57936-115.17600266°15km/h25400m6.8m/s-44.7°C0%0hPa0V00:00:0000:00:0000:00:00
KE7DJD2026-09-05 18:16:0841.57909-115.17500280°27km/h25290m6.6m/s-45.7°C0%0hPa0V00:00:0000:00:0000:00:00
KE7DJD2026-09-05 18:15:4741.57921-115.17351227°35km/h25176m3.3m/s-45.6°C0%0hPa0V00:00:0000:00:0000:00:00
KE7DJD2026-09-05 18:15:2641.57936-115.1725930°5km/h25069m5.5m/s-45.8°C0%0hPa0V00:00:0000:00:0000:00:00
KE7DJD2026-09-05 18:15:0541.57915-115.17168266°35km/h24956m2.6m/s-46.0°C0%0hPa0V00:00:0000:00:0000:00:00
KE7DJD2026-09-05 18:14:4541.57900-115.16997250°33km/h24843m5.7m/s-45.4°C0%0hPa0V00:00:0000:00:0000:00:00
KE7DJD2026-09-05 18:14:2541.57885-115.16791268°37km/h24733m5.2m/s-45.5°C0%0hPa0V00:00:0000:00:0000:00:00
KE7DJD2026-09-05 18:14:0441.57869-115.16580250°49km/h24619m6.9m/s-45.6°C0%0hPa0V00:00:0000:00:0000:00:00
KE7DJD2026-09-05 18:13:4441.57915-115.16376216°37km/h24499m4.5m/s-45.8°C0%0hPa0V00:00:0000:00:0000:00:00
KE7DJD2026-09-05 18:13:2341.57967-115.16228254°16km/h24384m7.2m/s-45.7°C0%0hPa0V00:00:0000:00:0000:00:00
KE7DJD2026-09-05 18:13:0341.57992-115.16069296°47km/h24261m6.1m/s-45.7°C0%0hPa0V00:00:0000:00:0000:00:00
KE7DJD2026-09-05 18:12:4241.58042-115.15889218°46km/h24146m6.0m/s-45.7°C0%0hPa0V00:00:0000:00:0000:00:00
KE7DJD2026-09-05 18:12:2241.58139-115.15704238°29km/h24029m6.6m/s-45.3°C0%0hPa0V00:00:0000:00:0000:00:00
KE7DJD2026-09-05 18:12:0041.58212-115.15619197°13km/h23911m5.4m/s-45.5°C0%0hPa0V00:00:0000:00:0000:00:00
KE7DJD2026-09-05 18:11:3941.58215-115.1558711°7km/h23797m4.0m/s-46.3°C0%0hPa0V00:00:0000:00:0000:00:00
KE7DJD2026-09-05 18:11:1941.58136-115.1552738°27km/h23687m4.4m/s-46.5°C0%0hPa0V00:00:0000:00:0000:00:00
KE7DJD2026-09-05 18:10:5841.58048-115.15440318°35km/h23575m6.4m/s-46.0°C0%0hPa0V00:00:0000:00:0000:00:00
KE7DJD2026-09-05 18:10:3741.57986-115.15293292°31km/h23473m4.2m/s-45.9°C0%0hPa0V00:00:0000:00:0000:00:00
KE7DJD2026-09-05 18:10:1741.57945-115.15113262°24km/h23361m6.0m/s-46.1°C0%0hPa0V00:00:0000:00:0000:00:00
KE7DJD2026-09-05 18:09:5641.57942-115.14882265°33km/h23247m5.3m/s-46.0°C0%0hPa0V00:00:0000:00:0000:00:00
KE7DJD2026-09-05 18:09:3541.57960-115.14673264°40km/h23136m4.7m/s-47.1°C0%0hPa0V00:00:0000:00:0000:00:00
KE7DJD2026-09-05 18:08:5441.57943-115.14455282°29km/h22918m5.9m/s-48.7°C0%0hPa0V00:00:0000:00:0000:00:00
KE7DJD2026-09-05 18:08:3441.57923-115.14308257°11km/h22801m4.0m/s-49.0°C0%0hPa0V00:00:0000:00:0000:00:00
KE7DJD2026-09-05 18:08:1341.57946-115.14171201°22km/h22688m6.1m/s-48.9°C0%0hPa0V00:00:0000:00:0000:00:00
KE7DJD2026-09-05 18:07:5341.58008-115.14053233°24km/h22568m6.1m/s-48.6°C0%0hPa0V00:00:0000:00:0000:00:00
KE7DJD2026-09-05 18:07:3241.58048-115.1398698°11km/h22460m6.0m/s-48.4°C0%0hPa0V00:00:0000:00:0000:00:00
KE7DJD2026-09-05 18:07:1241.58048-115.13936278°5km/h22346m4.7m/s-48.2°C0%0hPa0V00:00:0000:00:0000:00:00
KE7DJD2026-09-05 18:06:5141.58054-115.13833275°26km/h22238m4.5m/s-47.9°C0%0hPa0V00:00:0000:00:0000:00:00
KE7DJD2026-09-05 18:06:3041.58049-115.13734244°16km/h22132m5.5m/s-47.9°C0%0hPa0V00:00:0000:00:0000:00:00
KE7DJD2026-09-05 18:06:1041.58065-115.1370821°4km/h22029m5.3m/s-48.2°C0%0hPa0V00:00:0000:00:0000:00:00
KE7DJD2026-09-05 18:05:5041.58056-115.13704260°7km/h21923m6.3m/s-47.9°C0%0hPa0V00:00:0000:00:0000:00:00
KE7DJD2026-09-05 18:05:2941.58034-115.13625284°24km/h21823m4.7m/s-48.7°C0%0hPa0V00:00:0000:00:0000:00:00
KE7DJD2026-09-05 18:05:0941.57975-115.13518320°27km/h21718m4.1m/s-48.8°C0%0hPa0V00:00:0000:00:0000:00:00
KE7DJD2026-09-05 18:04:4841.57903-115.13379302°38km/h21616m6.1m/s-48.7°C0%0hPa0V00:00:0000:00:0000:00:00
KE7DJD2026-09-05 18:04:2841.57865-115.13204265°16km/h21509m6.3m/s-48.3°C0%0hPa0V00:00:0000:00:0000:00:00
KE7DJD2026-09-05 18:04:0741.57862-115.13065276°20km/h21404m3.8m/s-48.4°C0%0hPa0V00:00:0000:00:0000:00:00
KE7DJD2026-09-05 18:03:4641.57862-115.12987286°13km/h21305m5.4m/s-48.2°C0%0hPa0V00:00:0000:00:0000:00:00
KE7DJD2026-09-05 18:03:2641.57826-115.129855km/h21196m5.8m/s-49.1°C0%0hPa0V00:00:0000:00:0000:00:00
KE7DJD2026-09-05 18:03:0541.57764-115.1299829km/h21093m4.4m/s-49.8°C0%0hPa0V00:00:0000:00:0000:00:00
KE7DJD2026-09-05 18:02:4541.57654-115.12915300°33km/h20990m4.4m/s-50.5°C0%0hPa0V00:00:0000:00:0000:00:00
KE7DJD2026-09-05 18:02:2441.57567-115.12778311°40km/h20889m4.5m/s-50.2°C0%0hPa0V00:00:0000:00:0000:00:00
KE7DJD2026-09-05 18:02:0441.57523-115.12630269°35km/h20791m6.0m/s-50.1°C0%0hPa0V00:00:0000:00:0000:00:00
KE7DJD2026-09-05 18:01:4341.57526-115.12430277°29km/h20693m4.7m/s-50.3°C0%0hPa0V00:00:0000:00:0000:00:00
KE7DJD2026-09-05 18:01:2341.57518-115.12280274°5km/h20588m5.9m/s-49.8°C0%0hPa0V00:00:0000:00:0000:00:00
KE7DJD2026-09-05 18:01:0241.57482-115.12199335°15km/h20487m6.0m/s-49.9°C0%0hPa0V00:00:0000:00:0000:00:00
KE7DJD2026-09-05 18:00:4241.57385-115.12152328°16km/h20383m5.4m/s-50.2°C0%0hPa0V00:00:0000:00:0000:00:00
KE7DJD2026-09-05 18:00:2141.57299-115.12148340°9km/h20284m5.0m/s-50.0°C0%0hPa0V00:00:0000:00:0000:00:00
KE7DJD2026-09-05 18:00:0141.57208-115.1213511°31km/h20179m5.3m/s-49.7°C0%0hPa0V00:00:0000:00:0000:00:00
KE7DJD2026-09-05 17:59:4041.57071-115.12108331°24km/h20074m4.3m/s-49.6°C0%0hPa0V00:00:0000:00:0000:00:00
KE7DJD2026-09-05 17:59:1841.56942-115.12070334°20km/h19973m5.1m/s-49.1°C0%0hPa0V00:00:0000:00:0000:00:00
KE7DJD2026-09-05 17:58:5841.56816-115.11982315°24km/h19874m5.4m/s-48.3°C0%0hPa0V00:00:0000:00:0000:00:00
KE7DJD2026-09-05 17:58:3741.56712-115.1189913°13km/h19772m4.0m/s-49.9°C0%0hPa0V00:00:0000:00:0000:00:00
KE7DJD2026-09-05 17:58:1641.56638-115.11880333°20km/h19678m3.7m/s-50.5°C0%0hPa0V00:00:0000:00:0000:00:00
KE7DJD2026-09-05 17:57:5641.56582-115.11825321°4km/h19580m4.1m/s-50.4°C0%0hPa0V00:00:0000:00:0000:00:00
KE7DJD2026-09-05 17:57:3541.56571-115.11829172°9km/h19485m4.9m/s-50.7°C0%0hPa0V00:00:0000:00:0000:00:00
KE7DJD2026-09-05 17:57:1541.56562-115.1186440°11km/h19387m3.9m/s-51.5°C0%0hPa0V00:00:0000:00:0000:00:00
KE7DJD2026-09-05 17:56:5441.56487-115.1194630°22km/h19286m3.7m/s-52.1°C0%0hPa0V00:00:0000:00:0000:00:00
KE7DJD2026-09-05 17:56:3341.56392-115.1202923°22km/h19187m5.7m/s-52.1°C0%0hPa0V00:00:0000:00:0000:00:00
KE7DJD2026-09-05 17:56:1341.56311-115.1209141°18km/h19085m4.2m/s-51.7°C0%0hPa0V00:00:0000:00:0000:00:00
KE7DJD2026-09-05 17:55:5241.56214-115.1211916°22km/h18986m6.0m/s-51.3°C0%0hPa0V00:00:0000:00:0000:00:00
KE7DJD2026-09-05 17:55:3241.56126-115.1212317°24km/h18885m4.7m/s-51.8°C0%0hPa0V00:00:0000:00:0000:00:00


GPX KML Map

© wettersonde.net (DO2JMG) - 2026  -  -